Time,TemperatureF,DewpointF,PressureIn,WindDirection,WindDirectionDegrees,WindSpeedMPH,WindSpeedGustMPH,Humidity,HourlyPrecipIn,Conditions,Clouds,dailyrainin,SoftwareType,DateUTC
2013-01-05 00:03:00,10.1,-1.0,30.44,SSW,211,0.0,-999.0,61,-99.99,,,0.00,weatherlink.com 1.10,2013-01-05 07:03:00,
2013-01-05 00:18:00,8.7,-2.0,30.45,SSW,211,0.0,-999.0,62,-99.99,,,0.00,weatherlink.com 1.10,2013-01-05 07:18:00,
2013-01-05 00:33:00,8.5,-2.0,30.45,SSW,211,1.0,-999.0,62,-99.99,,,0.00,weatherlink.com 1.10,2013-01-05 07:33:00,
2013-01-05 00:48:00,8.2,-3.0,30.45,SSW,211,0.0,-999.0,62,-99.99,,,0.00,weatherlink.com 1.10,2013-01-05 07:48:00,
2013-01-05 01:03:00,6.5,-3.0,30.45,SSW,211,0.0,-999.0,66,-99.99,,,0.00,weatherlink.com 1.10,2013-01-05 08:03:00,
2013-01-05 01:18:00,7.1,-2.0,30.45,SSW,211,1.0,-999.0,65,-99.99,,,0.00,weatherlink.com 1.10,2013-01-05 08:18:00,
2013-01-05 01:33:00,6.6,-3.0,30.45,SSW,211,0.0,-999.0,64,-99.99,,,0.00,weatherlink.com 1.10,2013-01-05 08:33:00,
2013-01-05 01:48:00,6.2,-4.0,30.46,SSW,211,0.0,-999.0,64,-99.99,,,0.00,weatherlink.com 1.10,2013-01-05 08:48:00,
2013-01-05 02:04:00,5.7,-4.0,30.46,SSW,211,0.0,-999.0,64,-99.99,,,0.00,weatherlink.com 1.10,2013-01-05 09:04:00,
2013-01-05 02:19:00,5.5,-4.0,30.47,SSW,211,0.0,-999.0,64,-99.99,,,0.00,weatherlink.com 1.10,2013-01-05 09:19:00,
2013-01-05 02:34:00,5.2,-4.0,30.47,SSW,211,0.0,-999.0,65,-99.99,,,0.00,weatherlink.com 1.10,2013-01-05 09:34:00,
2013-01-05 02:49:00,5.7,-5.0,30.48,SSW,211,0.0,-999.0,63,-99.99,,,0.00,weatherlink.com 1.10,2013-01-05 09:49:00,
2013-01-05 03:04:00,7.4,-4.0,30.48,NE,52,0.0,-999.0,59,-99.99,,,0.00,weatherlink.com 1.10,2013-01-05 10:04:00,
2013-01-05 03:19:00,7.3,-4.0,30.48,NE,53,1.0,-999.0,59,-99.99,,,0.00,weatherlink.com 1.10,2013-01-05 10:19:00,
2013-01-05 03:34:00,7.2,-5.0,30.48,NE,53,1.0,-999.0,59,-99.99,,,0.00,weatherlink.com 1.10,2013-01-05 10:34:00,
2013-01-05 03:49:00,7.2,-5.0,30.48,NE,49,1.0,-999.0,59,-99.99,,,0.00,weatherlink.com 1.10,2013-01-05 10:49:00,
2013-01-05 04:04:00,6.8,-4.0,30.49,NE,49,0.0,-999.0,61,-99.99,,,0.00,weatherlink.com 1.10,2013-01-05 11:04:00,
2013-01-05 04:19:00,6.6,-4.0,30.49,NE,50,2.0,-999.0,61,-99.99,,,0.00,weatherlink.com 1.10,2013-01-05 11:19:00,
2013-01-05 04:34:00,6.6,-4.0,30.49,NE,50,0.0,-999.0,61,-99.99,,,0.00,weatherlink.com 1.10,2013-01-05 11:34:00,
2013-01-05 04:49:00,6.5,-4.0,30.50,NE,50,0.0,-999.0,61,-99.99,,,0.00,weatherlink.com 1.10,2013-01-05 11:49:00,
2013-01-05 05:04:00,7.0,-4.0,30.50,NE,44,1.0,-999.0,60,-99.99,,,0.00,weatherlink.com 1.10,2013-01-05 12:04:00,
2013-01-05 05:19:00,7.8,-4.0,30.50,NE,44,1.0,-999.0,58,-99.99,,,0.00,weatherlink.com 1.10,2013-01-05 12:19:00,
2013-01-05 05:35:00,7.2,-4.0,30.51,NE,44,1.0,-999.0,60,-99.99,,,0.00,weatherlink.com 1.10,2013-01-05 12:35:00,
2013-01-05 05:50:00,6.4,-5.0,30.51,NE,48,0.0,-999.0,61,-99.99,,,0.00,weatherlink.com 1.10,2013-01-05 12:50:00,
2013-01-05 06:05:00,6.1,-4.0,30.52,NE,49,1.0,-999.0,63,-99.99,,,0.00,weatherlink.com 1.10,2013-01-05 13:05:00,
2013-01-05 06:20:00,6.3,-4.0,30.53,NE,49,0.0,-999.0,62,-99.99,,,0.00,weatherlink.com 1.10,2013-01-05 13:20:00,
2013-01-05 06:35:00,5.7,-4.0,30.54,NE,39,0.0,-999.0,64,-99.99,,,0.00,weatherlink.com 1.10,2013-01-05 13:35:00,
2013-01-05 06:50:00,5.4,-4.0,30.54,NE,45,2.0,-999.0,65,-99.99,,,0.00,weatherlink.com 1.10,2013-01-05 13:50:00,
2013-01-05 07:05:00,7.1,-4.0,30.55,NE,44,1.0,-999.0,61,-99.99,,,0.00,weatherlink.com 1.10,2013-01-05 14:05:00,
2013-01-05 07:20:00,7.9,-3.0,30.55,NE,46,1.0,-999.0,60,-99.99,,,0.00,weatherlink.com 1.10,2013-01-05 14:20:00,
2013-01-05 07:35:00,9.0,-4.0,30.55,NE,45,2.0,-999.0,57,-99.99,,,0.00,weatherlink.com 1.10,2013-01-05 14:35:00,
2013-01-05 07:50:00,12.0,-4.0,30.56,NE,55,3.0,-999.0,50,-99.99,,,0.00,weatherlink.com 1.10,2013-01-05 14:50:00,
2013-01-05 08:05:00,12.6,-3.0,30.56,NE,46,2.0,-999.0,50,-99.99,,,0.00,weatherlink.com 1.10,2013-01-05 15:05:00,
2013-01-05 08:20:00,14.0,-3.0,30.56,NE,49,1.0,-999.0,48,-99.99,,,0.00,weatherlink.com 1.10,2013-01-05 15:20:00,
2013-01-05 08:35:00,16.0,-2.0,30.57,NE,44,2.0,-999.0,45,-99.99,,,0.00,weatherlink.com 1.10,2013-01-05 15:35:00,
2013-01-05 08:50:00,18.6,-1.0,30.56,NE,54,1.0,-999.0,42,-99.99,,,0.00,weatherlink.com 1.10,2013-01-05 15:50:00,
2013-01-05 09:06:00,23.7,0.0,30.56,NE,51,1.0,-999.0,36,-99.99,,,0.00,weatherlink.com 1.10,2013-01-05 16:06:00,
2013-01-05 09:21:00,27.3,2.0,30.57,NE,51,0.0,-999.0,33,-99.99,,,0.00,weatherlink.com 1.10,2013-01-05 16:21:00,
2013-01-05 09:36:00,31.1,4.0,30.57,NE,54,0.0,-999.0,32,-99.99,,,0.00,weatherlink.com 1.10,2013-01-05 16:36:00,
2013-01-05 09:51:00,34.9,7.0,30.56,NE,51,0.0,-999.0,31,-99.99,,,0.00,weatherlink.com 1.10,2013-01-05 16:51:00,
2013-01-05 10:06:00,40.4,10.0,30.56,NE,51,0.0,-999.0,29,-99.99,,,0.00,weatherlink.com 1.10,2013-01-05 17:06:00,
2013-01-05 10:21:00,43.9,13.0,30.56,SSE,163,0.0,-999.0,28,-99.99,,,0.00,weatherlink.com 1.10,2013-01-05 17:21:00,
2013-01-05 10:36:00,44.1,10.0,30.56,South,190,0.0,-999.0,25,-99.99,,,0.00,weatherlink.com 1.10,2013-01-05 17:36:00,
2013-01-05 10:51:00,46.7,7.0,30.56,SW,221,0.0,-999.0,20,-99.99,,,0.00,weatherlink.com 1.10,2013-01-05 17:51:00,
2013-01-05 11:06:00,47.7,5.0,30.55,SW,214,0.0,-999.0,17,-99.99,,,0.00,weatherlink.com 1.10,2013-01-05 18:06:00,
2013-01-05 11:21:00,49.7,5.0,30.55,SSW,202,1.0,-999.0,16,-99.99,,,0.00,weatherlink.com 1.10,2013-01-05 18:21:00,
2013-01-05 11:36:00,51.2,5.0,30.54,West,279,0.0,-999.0,15,-99.99,,,0.00,weatherlink.com 1.10,2013-01-05 18:36:00,
2013-01-05 11:51:00,50.9,6.0,30.53,WSW,245,0.0,-999.0,16,-99.99,,,0.00,weatherlink.com 1.10,2013-01-05 18:51:00,
2013-01-05 12:06:00,49.9,8.0,30.52,SW,215,0.0,-999.0,18,-99.99,,,0.00,weatherlink.com 1.10,2013-01-05 19:06:00,
2013-01-05 12:22:00,49.5,5.0,30.51,West,259,1.0,-999.0,16,-99.99,,,0.00,weatherlink.com 1.10,2013-01-05 19:22:00,
2013-01-05 12:37:00,49.3,8.0,30.50,West,277,0.0,-999.0,19,-99.99,,,0.00,weatherlink.com 1.10,2013-01-05 19:37:00,
2013-01-05 12:52:00,50.7,8.0,30.49,South,178,0.0,-999.0,18,-99.99,,,0.00,weatherlink.com 1.10,2013-01-05 19:52:00,
2013-01-05 13:07:00,50.3,4.0,30.48,WNW,290,2.0,-999.0,15,-99.99,,,0.00,weatherlink.com 1.10,2013-01-05 20:07:00,
2013-01-05 13:22:00,50.8,10.0,30.47,SSW,210,0.0,-999.0,19,-99.99,,,0.00,weatherlink.com 1.10,2013-01-05 20:22:00,
2013-01-05 13:37:00,50.3,8.0,30.47,West,276,1.0,-999.0,18,-99.99,,,0.00,weatherlink.com 1.10,2013-01-05 20:37:00,
2013-01-05 13:52:00,49.2,8.0,30.46,South,177,1.0,-999.0,19,-99.99,,,0.00,weatherlink.com 1.10,2013-01-05 20:52:00,
2013-01-05 14:07:00,49.9,8.0,30.46,West,276,0.0,-999.0,18,-99.99,,,0.00,weatherlink.com 1.10,2013-01-05 21:07:00,
2013-01-05 14:22:00,50.4,9.0,30.46,WSW,252,1.0,-999.0,19,-99.99,,,0.00,weatherlink.com 1.10,2013-01-05 21:22:00,
2013-01-05 14:37:00,51.1,9.0,30.46,SSE,161,1.0,-999.0,18,-99.99,,,0.00,weatherlink.com 1.10,2013-01-05 21:37:00,
2013-01-05 14:52:00,50.0,8.0,30.46,South,173,1.0,-999.0,18,-99.99,,,0.00,weatherlink.com 1.10,2013-01-05 21:52:00,
2013-01-05 15:07:00,50.0,7.0,30.46,SSW,211,0.0,-999.0,17,-99.99,,,0.00,weatherlink.com 1.10,2013-01-05 22:07:00,
2013-01-05 15:22:00,49.3,6.0,30.46,WNW,290,1.0,-999.0,17,-99.99,,,0.00,weatherlink.com 1.10,2013-01-05 22:22:00,
2013-01-05 15:37:00,48.1,6.0,30.46,West,271,1.0,-999.0,18,-99.99,,,0.00,weatherlink.com 1.10,2013-01-05 22:37:00,
2013-01-05 15:53:00,48.1,7.0,30.46,West,280,3.0,-999.0,19,-99.99,,,0.00,weatherlink.com 1.10,2013-01-05 22:53:00,
2013-01-05 16:08:00,46.9,4.0,30.46,West,267,0.0,-999.0,17,-99.99,,,0.00,weatherlink.com 1.10,2013-01-05 23:08:00,
2013-01-05 16:23:00,45.7,8.0,30.46,SW,227,0.0,-999.0,21,-99.99,,,0.00,weatherlink.com 1.10,2013-01-05 23:23:00,
2013-01-05 16:38:00,45.1,6.0,30.46,SW,218,1.0,-999.0,20,-99.99,,,0.00,weatherlink.com 1.10,2013-01-05 23:38:00,
2013-01-05 16:53:00,44.1,4.0,30.46,West,276,0.0,-999.0,19,-99.99,,,0.00,weatherlink.com 1.10,2013-01-05 23:53:00,
2013-01-05 17:08:00,42.5,8.0,30.46,West,276,0.0,-999.0,24,-99.99,,,0.00,weatherlink.com 1.10,2013-01-06 00:08:00,
2013-01-05 17:23:00,39.3,9.0,30.46,West,276,0.0,-999.0,28,-99.99,,,0.00,weatherlink.com 1.10,2013-01-06 00:23:00,
2013-01-05 17:38:00,37.4,11.0,30.46,NNE,23,0.0,-999.0,34,-99.99,,,0.00,weatherlink.com 1.10,2013-01-06 00:38:00,
2013-01-05 17:53:00,35.5,13.0,30.47,NNE,23,0.0,-999.0,39,-99.99,,,0.00,weatherlink.com 1.10,2013-01-06 00:53:00,
2013-01-05 18:08:00,33.7,14.0,30.47,NE,49,0.0,-999.0,44,-99.99,,,0.00,weatherlink.com 1.10,2013-01-06 01:08:00,
2013-01-05 18:23:00,32.1,13.0,30.48,NE,42,0.0,-999.0,46,-99.99,,,0.00,weatherlink.com 1.10,2013-01-06 01:23:00,
2013-01-05 18:38:00,30.2,13.0,30.47,NE,54,0.0,-999.0,50,-99.99,,,0.00,weatherlink.com 1.10,2013-01-06 01:38:00,
2013-01-05 18:53:00,29.9,13.0,30.47,NE,49,1.0,-999.0,50,-99.99,,,0.00,weatherlink.com 1.10,2013-01-06 01:53:00,
2013-01-05 19:08:00,29.4,13.0,30.47,NNE,31,1.0,-999.0,50,-99.99,,,0.00,weatherlink.com 1.10,2013-01-06 02:08:00,
2013-01-05 19:23:00,28.9,13.0,30.46,NE,55,1.0,-999.0,52,-99.99,,,0.00,weatherlink.com 1.10,2013-01-06 02:23:00,
2013-01-05 19:38:00,28.8,13.0,30.46,NE,53,0.0,-999.0,51,-99.99,,,0.00,weatherlink.com 1.10,2013-01-06 02:38:00,
2013-01-05 19:53:00,27.9,13.0,30.46,NE,52,0.0,-999.0,53,-99.99,,,0.00,weatherlink.com 1.10,2013-01-06 02:53:00,
2013-01-05 20:08:00,27.6,12.0,30.46,NE,47,0.0,-999.0,52,-99.99,,,0.00,weatherlink.com 1.10,2013-01-06 03:08:00,
2013-01-05 20:23:00,27.8,12.0,30.46,NE,50,1.0,-999.0,51,-99.99,,,0.00,weatherlink.com 1.10,2013-01-06 03:23:00,
2013-01-05 20:38:00,27.5,11.0,30.46,NE,43,0.0,-999.0,51,-99.99,,,0.00,weatherlink.com 1.10,2013-01-06 03:38:00,
2013-01-05 20:53:00,27.3,11.0,30.46,NNE,22,0.0,-999.0,50,-99.99,,,0.00,weatherlink.com 1.10,2013-01-06 03:53:00,
2013-01-05 21:08:00,27.1,10.0,30.45,NE,43,1.0,-999.0,49,-99.99,,,0.00,weatherlink.com 1.10,2013-01-06 04:08:00,
2013-01-05 21:23:00,26.9,10.0,30.44,NNE,12,0.0,-999.0,50,-99.99,,,0.00,weatherlink.com 1.10,2013-01-06 04:23:00,
2013-01-05 21:38:00,26.6,9.0,30.44,NE,47,1.0,-999.0,48,-99.99,,,0.00,weatherlink.com 1.10,2013-01-06 04:38:00,
2013-01-05 21:53:00,26.9,9.0,30.44,NE,41,0.0,-999.0,47,-99.99,,,0.00,weatherlink.com 1.10,2013-01-06 04:53:00,
2013-01-05 22:23:00,20.6,9.0,30.44,NNE,27,0.0,-999.0,62,-99.99,,,0.00,weatherlink.com 1.10,2013-01-06 05:23:00,
2013-01-05 22:38:00,19.6,8.0,30.44,NE,36,0.0,-999.0,62,-99.99,,,0.00,weatherlink.com 1.10,2013-01-06 05:38:00,
2013-01-05 22:53:00,19.8,9.0,30.44,NE,36,0.0,-999.0,62,-99.99,,,0.00,weatherlink.com 1.10,2013-01-06 05:53:00,
2013-01-05 23:08:00,18.8,8.0,30.44,NE,37,0.0,-999.0,62,-99.99,,,0.00,weatherlink.com 1.10,2013-01-06 06:08:00,
2013-01-05 23:23:00,19.6,7.0,30.44,NE,44,1.0,-999.0,58,-99.99,,,0.00,weatherlink.com 1.10,2013-01-06 06:23:00,
2013-01-05 23:38:00,21.4,7.0,30.43,NE,41,0.0,-999.0,55,-99.99,,,0.00,weatherlink.com 1.10,2013-01-06 06:38:00,
2013-01-05 23:53:00,19.3,7.0,30.43,NE,43,0.0,-999.0,59,-99.99,,,0.00,weatherlink.com 1.10,2013-01-06 06:53:00,